Danville, KY

10:09 PM EST on December 11, 2017 (GMT -0500)
Powell

Weather History for KDVK - November, 2013

Change the Weather History Date:

Saturday, November 2, 2013

  Actual Average (KLEX) Record (KLEX)
Temperature  
Mean Temperature 48 °F -  
Max Temperature 55 °F 63 °F 82 °F (1987)
Min Temperature 41 °F 44 °F 22 °F (1954)
Degree Days  
Heating Degree Days 17    
Moisture  
Dew Point 40 °F    
Average Humidity 76    
Maximum Humidity 100    
Minimum Humidity 47    
Precipitation  
Precipitation 0.00 in - - ()
Sea Level Pressure  
Sea Level Pressure 29.93 in    
Wind  
Wind Speed 5 mph (WNW)    
Max Wind Speed 15 mph    
Max Gust Speed 22 mph    
Visibility 10 miles    
Events Rain    
Averages and records for this station are not official NWS values.
T = Trace of Precipitation, MM = Missing Value Source: NWS Daily Summary

Daily Weather History Graph

Daily Weather History Graph

Search for Another Location

Airport or City:

Trip Planner

Search our weather history database for the weather conditions in past years. The results will help you decide how hot, cold, wet, or windy it might be!

Date:

Astronomy

Nov. 02, 2013 Rise Set
Actual Time 8:05 AM EDT 6:39 PM EDT
Civil Twilight 7:38 AM EDT 7:06 PM EDT
Nautical Twilight 7:07 AM EDT 7:37 PM EDT
Astronomical Twilight 6:36 AM EDT 8:08 PM EDT
Moon 7:02 AM EDT (11/2) 6:09 PM EDT (11/2)
Length of Visible Light 11h 28m
Length of Day
10h 33m
Waning Crescent, 1% of the Moon is Illuminated
Nov 2
Waning Crescent
Nov 3
New
Nov 10
First Quarter
Nov 17
Full
Nov 25
Last Quarter

Hourly Weather History & Observations

Time (EDT) Temp. Windchill Dew Point Humidity Pressure Visibility Wind Dir Wind Speed Gust Speed Precip Events Conditions
12:15 AM 53.6 °F - 42.8 °F 67% 29.82 in 10.0 mi WNW 5.8 mph - N/A   Clear
12:35 AM 51.8 °F - 42.8 °F 71% 29.82 in 10.0 mi West 3.5 mph - N/A   Clear
12:55 AM 50.0 °F - 42.8 °F 76% 29.82 in 10.0 mi West 3.5 mph - N/A   Clear
1:15 AM 50.0 °F - 42.8 °F 76% 29.82 in 10.0 mi West 3.5 mph - N/A   Clear
1:35 AM 48.2 °F - 42.8 °F 82% 29.82 in 10.0 mi West 4.6 mph - N/A   Clear
1:55 AM 48.2 °F - 42.8 °F 82% 29.82 in 10.0 mi West 4.6 mph - N/A   Clear
2:15 AM 50.0 °F - 41.0 °F 71% 29.82 in 10.0 mi WNW 9.2 mph - N/A   Clear
2:35 AM 51.8 °F - 41.0 °F 67% 29.82 in 10.0 mi WNW 10.4 mph - N/A   Clear
2:55 AM 50.0 °F - 42.8 °F 76% 29.83 in 10.0 mi WNW 11.5 mph 17.3 mph N/A   Clear
3:15 AM 50.0 °F - 41.0 °F 71% 29.83 in 10.0 mi NW 8.1 mph - N/A   Clear
3:35 AM 48.2 °F - 41.0 °F 76% 29.84 in 10.0 mi WNW 6.9 mph - N/A   Clear
3:55 AM 48.2 °F - 41.0 °F 76% 29.84 in 10.0 mi NW 5.8 mph - N/A   Clear
4:15 AM 46.4 °F 43.5 °F 41.0 °F 81% 29.84 in 10.0 mi WNW 5.8 mph - N/A   Clear
4:35 AM 46.4 °F 44.3 °F 41.0 °F 81% 29.84 in 10.0 mi NW 4.6 mph - N/A   Clear
4:55 AM 46.4 °F 44.3 °F 41.0 °F 81% 29.84 in 10.0 mi NW 4.6 mph - N/A   Clear
5:15 AM 44.6 °F 42.2 °F 39.2 °F 81% 29.85 in 10.0 mi WNW 4.6 mph - N/A   Clear
5:35 AM 44.6 °F 43.1 °F 39.2 °F 81% 29.85 in 10.0 mi West 3.5 mph - N/A   Clear
5:55 AM 42.8 °F 41.1 °F 39.2 °F 87% 29.85 in 10.0 mi South 3.5 mph - N/A   Clear
6:15 AM 41.0 °F - 39.2 °F 93% 29.86 in 10.0 mi Calm Calm - N/A   Clear
6:35 AM 41.0 °F - 37.4 °F 87% 29.86 in 10.0 mi Calm Calm - N/A   Clear
6:55 AM 41.0 °F - 37.4 °F 87% 29.86 in 10.0 mi Calm Calm - N/A   Scattered Clouds
7:15 AM 41.0 °F - 39.2 °F 93% 29.87 in 10.0 mi Calm Calm - N/A   Overcast
7:35 AM 41.0 °F - 39.2 °F 93% 29.87 in 10.0 mi Calm Calm - N/A   Overcast
7:55 AM 41.0 °F - 41.0 °F 100% 29.87 in 10.0 mi Calm Calm - N/A   Overcast
8:15 AM 42.8 °F - 41.0 °F 93% 29.87 in 10.0 mi Calm Calm - N/A   Overcast
8:35 AM 42.8 °F - 41.0 °F 93% 29.88 in 10.0 mi Calm Calm - N/A   Overcast
8:55 AM 42.8 °F 41.1 °F 41.0 °F 93% 29.90 in 10.0 mi SW 3.5 mph - N/A   Overcast
9:15 AM 44.6 °F 43.1 °F 41.0 °F 87% 29.90 in 10.0 mi SW 3.5 mph - N/A   Overcast
9:35 AM 44.6 °F - 41.0 °F 87% 29.91 in 10.0 mi Calm Calm - N/A   Overcast
9:55 AM 44.6 °F - 41.0 °F 87% 29.92 in 10.0 mi Calm Calm - N/A   Mostly Cloudy
10:15 AM 46.4 °F 44.3 °F 41.0 °F 81% 29.93 in 10.0 mi West 4.6 mph - N/A   Scattered Clouds
10:35 AM 50.0 °F - 42.8 °F 76% 29.93 in 10.0 mi WSW 5.8 mph - N/A   Clear
10:55 AM 51.8 °F - 41.0 °F 67% 29.93 in 10.0 mi West 3.5 mph - N/A   Scattered Clouds
11:15 AM 51.8 °F - 41.0 °F 67% 29.93 in 10.0 mi West 9.2 mph - N/A   Mostly Cloudy
11:35 AM 51.8 °F - 37.4 °F 58% 29.93 in 10.0 mi NW 6.9 mph - N/A   Mostly Cloudy
11:55 AM 51.8 °F - 39.2 °F 62% 29.94 in 10.0 mi NW 8.1 mph - N/A   Scattered Clouds
1:15 PM 55.4 °F - 35.6 °F 47% 29.94 in 10.0 mi NW 8.1 mph 17.3 mph N/A   Mostly Cloudy
1:35 PM 55.4 °F - 35.6 °F 47% 29.94 in 10.0 mi WNW 15.0 mph 19.6 mph N/A   Scattered Clouds
1:55 PM 53.6 °F - 37.4 °F 54% 29.94 in 10.0 mi WNW 9.2 mph - N/A   Scattered Clouds
2:15 PM 55.4 °F - 37.4 °F 51% 29.93 in 10.0 mi WNW 10.4 mph - N/A   Scattered Clouds
2:35 PM 53.6 °F - 35.6 °F 51% 29.93 in 10.0 mi WNW 10.4 mph - N/A   Scattered Clouds
2:55 PM 55.4 °F - 37.4 °F 51% 29.93 in 10.0 mi WNW 6.9 mph - N/A   Clear
3:15 PM 53.6 °F - 35.6 °F 51% 29.93 in 10.0 mi NW 8.1 mph 21.9 mph N/A Rain Light Rain
3:35 PM 51.8 °F - 37.4 °F 58% 29.94 in 10.0 mi NW 8.1 mph 20.7 mph N/A Rain Rain
3:55 PM 51.8 °F - 39.2 °F 62% 29.94 in 10.0 mi West 4.6 mph - N/A   Mostly Cloudy
4:15 PM 51.8 °F - 39.2 °F 62% 29.95 in 10.0 mi North 11.5 mph 17.3 mph N/A Rain Rain
4:35 PM 51.8 °F - 37.4 °F 58% 29.95 in 10.0 mi NNW 5.8 mph - N/A   Overcast
4:55 PM 50.0 °F - 41.0 °F 71% 29.95 in 7.0 mi WSW 8.1 mph 18.4 mph N/A Rain Light Rain
5:15 PM 48.2 °F - 42.8 °F 82% 29.96 in 10.0 mi WNW 11.5 mph - N/A   Overcast
5:35 PM 46.4 °F 42.9 °F 42.8 °F 87% 29.98 in 10.0 mi WNW 6.9 mph - N/A   Overcast
5:55 PM 46.4 °F 42.9 °F 42.8 °F 87% 29.99 in 10.0 mi West 6.9 mph - N/A   Light Drizzle
6:15 PM 46.4 °F 43.5 °F 42.8 °F 87% 29.99 in 10.0 mi West 5.8 mph - N/A Rain Light Rain
6:35 PM 46.4 °F 42.4 °F 41.0 °F 81% 29.99 in 10.0 mi WNW 8.1 mph - N/A   Overcast
6:55 PM 46.4 °F 44.3 °F 41.0 °F 81% 30.00 in 10.0 mi West 4.6 mph - N/A   Overcast
7:15 PM 46.4 °F 44.3 °F 41.0 °F 81% 30.00 in 10.0 mi West 4.6 mph - N/A   Overcast
7:35 PM 46.4 °F 43.5 °F 41.0 °F 81% 30.02 in 10.0 mi West 5.8 mph - N/A   Overcast
7:55 PM 46.4 °F 42.9 °F 41.0 °F 81% 30.03 in 10.0 mi West 6.9 mph - N/A   Overcast
8:15 PM 46.4 °F 42.9 °F 41.0 °F 81% 30.04 in 10.0 mi WNW 6.9 mph - N/A   Overcast
8:35 PM 48.2 °F - 41.0 °F 76% 30.05 in 10.0 mi WNW 10.4 mph - N/A   Overcast
8:55 PM 48.2 °F - 41.0 °F 76% 30.05 in 10.0 mi NW 8.1 mph - N/A   Overcast
9:15 PM 46.4 °F 42.4 °F 41.0 °F 81% 30.06 in 10.0 mi NW 8.1 mph - N/A   Overcast
9:35 PM 46.4 °F 42.9 °F 41.0 °F 81% 30.07 in 10.0 mi NW 6.9 mph - N/A   Mostly Cloudy
9:55 PM 46.4 °F 42.9 °F 41.0 °F 81% 30.08 in 10.0 mi NW 6.9 mph - N/A   Scattered Clouds
10:15 PM 46.4 °F 42.4 °F 41.0 °F 81% 30.09 in 10.0 mi NW 8.1 mph - N/A   Overcast
10:35 PM 46.4 °F 43.5 °F 41.0 °F 81% 30.10 in 10.0 mi NW 5.8 mph - N/A   Overcast
10:55 PM 46.4 °F 43.5 °F 41.0 °F 81% 30.10 in 10.0 mi NW 5.8 mph - N/A   Overcast
11:15 PM 44.6 °F 41.4 °F 41.0 °F 87% 30.12 in 10.0 mi NNW 5.8 mph - N/A   Overcast
11:35 PM 44.6 °F 42.2 °F 41.0 °F 87% 30.12 in 10.0 mi NNW 4.6 mph - N/A   Overcast
11:55 PM 44.6 °F 41.4 °F 41.0 °F 87% 30.13 in 10.0 mi NNW 5.8 mph - N/A   Overcast